Flag for Switzerland Weather past 2 weeks in Delémont, Jura, Switzerland

Now
64 °F

Mild.


Feels Like: 64 °F
Forecast: 41 / 67 °F
Wind: 6 mph from Northeast

Location: Grenchen

Current Time: Sep 1, 2014 at 5:09:58 PM

Latest Report: Sep 1, 2014 at 4:00 PM


Visibility: N/A

Pressure: 30.13 "Hg

Humidity: 54%

Dew point: 47 °F

Location of DelémontLocation

Historic Weather in Delémont — Graph

°F

Delémont temperature yesterday

Maximum temperature yesterday: 65 °F (at 11:00 AM)
Minimum temperature yesterday: 58 °F (at 5:00 AM)
Average temperature yesterday: 60 °F

Past Weeks' High & Low Weather Summary

 TemperatureHumidityPressure
High76 °F (Aug 28, 6:00 PM)98% (Aug 18, 5:00 AM)30.20 "Hg (Aug 18, 5:00 AM)
Low47 °F (Aug 25, 2:00 AM)41% (Aug 21, 3:00 PM)29.79 "Hg (Aug 26, 6:00 PM)
Average61 °F75%30.02 "Hg
* Reported Aug 17 3:00 PM — Sep 1 3:00 PM, Delémont, Weather by CustomWeather, © 2014

Note: Actual official high and low records may vary slightly from our data, if they occured in-between our weather recording intervals... More about our weather records

Advertising

Delémont weather history for previous 24 hours

 ConditionsComfort  
Time TempWeatherWind HumidityBarometerVisibility
3:00 PM
Sep 1
64 °FMild.5 mph62%30.13 "HgN/A
2:00 PM62 °FCool.5 mph61%30.13 "HgN/A
1:00 PM62 °FCool.7 mph62%30.13 "HgN/A
12:00 PM60 °FCool.8 mph66%30.14 "HgN/A
11:00 AM60 °FCool.3 mph70%30.13 "HgN/A
10:00 AM57 °FCool.5 mph88%30.14 "HgN/A
9:00 AM55 °FCool.5 mph93%30.14 "HgN/A
8:00 AM54 °FCool.1 mph94%30.13 "HgN/A
7:00 AM53 °FCool.5 mph95%30.11 "HgN/A
6:00 AM54 °FCool.2 mph93%30.10 "HgN/A
5:00 AM55 °FCool.2 mph91%30.10 "HgN/A
4:00 AM55 °FCool.1 mph85%30.09 "HgN/A
3:00 AM56 °FCool.7 mph79%30.08 "HgN/A
2:00 AM56 °FCool.8 mph79%30.08 "HgN/A
1:00 AM56 °FCool.3 mph87%30.08 "HgN/A
12:00 AM56 °FCool.3 mph84%30.08 "HgN/A
11:00 PM
Aug 31
59 °FCool.5 mph69%30.07 "HgN/A
10:00 PM58 °FCool.3 mph68%30.07 "HgN/A
9:00 PM59 °FCool.7 mph70%30.06 "HgN/A
8:00 PM60 °FCool.6 mph69%30.05 "HgN/A
7:00 PM59 °FCool.8 mph69%30.03 "HgN/A
6:00 PM60 °FCool.10 mph70%30.03 "HgN/A
5:00 PM62 °FCool.17 mph65%30.00 "HgN/A
Weather by CustomWeather, © 2014

See weather overviewHow to use our weather pages